Weather History for Millville, NJ

Change the Weather History Date:

Thursday, January 2, 2014

  Actual Average Record
Temperature  
Mean Temperature 31 °F -  
Max Temperature 36 °F 42 °F 64 °F (2000)
Min Temperature 25 °F 25 °F -3 °F (1968)
Degree Days  
Heating Degree Days 34    
Moisture  
Dew Point 29 °F    
Average Humidity 92    
Maximum Humidity 96    
Minimum Humidity 85    
Precipitation  
Precipitation 0.00 in - - ()
Sea Level Pressure  
Sea Level Pressure 29.81 in    
Wind  
Wind Speed 7 mph (NNE)    
Max Wind Speed 14 mph    
Max Gust Speed -    
Visibility 5 miles    
Events Snow    
Averages and records for this station are not official NWS values.
T = Trace of Precipitation, MM = Missing Value Source: NWS Daily Summary

Daily Weather History Graph

Daily Weather History Graph

Search for Another Location

Airport:

Trip Planner

Search our weather history database for the weather conditions in past years. The results will help you decide how hot, cold, wet, or windy it might be!

Date:

Astronomy

Jan. 02, 2014 Rise Set
Actual Time 7:20 AM EST 4:48 PM EST
Civil Twilight 6:50 AM EST 5:18 PM EST
Nautical Twilight 6:16 AM EST 5:52 PM EST
Astronomical Twilight 5:44 AM EST 6:24 PM EST
Moon 8:00 AM EST (1/2) 6:41 PM EST (1/2)
Length of Visible Light 10h 28m
Length of Day
9h 28m
New Moon, 2% of the Moon is Illuminated
Jan 2
New Moon
Jan 7
First Quarter
Jan 15
Full
Jan 24
Last Quarter
Jan 30
New

Hourly Weather History & Observations

Time (EST) Temp. Windchill Dew Point Humidity Pressure Visibility Wind Dir Wind Speed Gust Speed Precip Events Conditions
12:54 AM 34.0 °F 29.8 °F 32.0 °F 92% 30.15 in 10.0 mi East 4.6 mph - N/A   Mostly Cloudy
1:32 AM 34.0 °F - 30.9 °F 89% 30.13 in 10.0 mi Calm Calm - N/A   Partly Cloudy
1:54 AM 33.1 °F 30.0 °F 30.0 °F 89% 30.13 in 10.0 mi ENE 3.5 mph - N/A   Clear
2:54 AM 33.1 °F - 30.0 °F 89% 30.11 in 10.0 mi Calm Calm - N/A   Clear
3:54 AM 32.0 °F - 28.9 °F 88% 30.09 in 10.0 mi Calm Calm - N/A   Clear
4:54 AM 30.9 °F 27.5 °F 28.9 °F 92% 30.04 in 10.0 mi North 3.5 mph - N/A   Clear
5:54 AM 30.9 °F - 30.0 °F 96% 30.05 in 10.0 mi Calm Calm - N/A   Clear
6:54 AM 30.9 °F - 28.9 °F 92% 30.01 in 8.0 mi Calm Calm - N/A   Clear
7:54 AM 32.0 °F 27.5 °F 30.0 °F 92% 30.01 in 7.0 mi NNE 4.6 mph - N/A   Clear
8:29 AM 33.1 °F 27.7 °F 30.9 °F 92% 30.01 in 7.0 mi NE 5.8 mph - N/A   Scattered Clouds
8:37 AM 34.0 °F 27.2 °F 32.0 °F 92% 30.00 in 7.0 mi NE 8.1 mph - N/A   Mostly Cloudy
8:54 AM 34.0 °F 27.2 °F 32.0 °F 92% 29.99 in 7.0 mi NE 8.1 mph - N/A   Overcast
9:54 AM 36.0 °F 29.0 °F 33.1 °F 89% 29.98 in 9.0 mi ENE 9.2 mph - N/A   Overcast
10:33 AM 36.0 °F 28.5 °F 32.0 °F 86% 29.97 in 10.0 mi ENE 10.4 mph - N/A   Overcast
10:54 AM 36.0 °F 28.0 °F 32.0 °F 86% 29.95 in 10.0 mi NE 11.5 mph - N/A   Overcast
11:54 AM 36.0 °F 28.0 °F 33.1 °F 89% 29.89 in 10.0 mi ENE 11.5 mph - N/A   Overcast
12:08 PM 36.0 °F 27.1 °F 33.1 °F 89% 29.88 in 10.0 mi NNE 13.8 mph - N/A   Overcast
12:54 PM 36.0 °F 27.5 °F 32.0 °F 86% 29.85 in 10.0 mi NNE 12.7 mph - N/A   Overcast
1:54 PM 34.0 °F 25.0 °F 30.9 °F 89% 29.80 in 9.0 mi NE 12.7 mph - N/A   Overcast
2:54 PM 33.1 °F 23.9 °F 30.0 °F 89% 29.78 in 9.0 mi NE 12.7 mph - N/A   Overcast
3:54 PM 33.1 °F 24.9 °F 28.9 °F 85% 29.79 in 9.0 mi NE 10.4 mph - N/A   Overcast
4:54 PM 32.0 °F 23.6 °F 28.9 °F 88% 29.75 in 10.0 mi NE 10.4 mph - N/A   Overcast
5:47 PM 30.9 °F 21.2 °F 28.9 °F 92% 29.72 in 1.8 mi ENE 12.7 mph - 0.00 in Snow Light Snow
5:54 PM 30.0 °F 20.0 °F 28.9 °F 96% 29.71 in 1.0 mi NE 12.7 mph - 0.00 in Snow Light Snow
6:18 PM 30.0 °F 21.1 °F 28.9 °F 96% 29.71 in 2.0 mi NE 10.4 mph - 0.00 in Snow Light Snow
6:54 PM 30.0 °F 21.1 °F 28.9 °F 96% 29.68 in 2.5 mi NNE 10.4 mph - 0.00 in Snow Light Snow
7:06 PM 30.0 °F 20.0 °F 28.9 °F 96% 29.68 in 3.0 mi NNE 12.7 mph - 0.00 in Snow Light Snow
7:34 PM 30.0 °F 21.7 °F 28.9 °F 96% 29.67 in 1.8 mi NNE 9.2 mph - 0.00 in Snow Light Snow
7:54 PM 30.0 °F 20.5 °F 28.0 °F 92% 29.67 in 1.5 mi NNE 11.5 mph - 0.00 in Snow Light Snow
8:11 PM 30.0 °F 21.1 °F 28.0 °F 92% 29.67 in 1.0 mi NNE 10.4 mph - 0.00 in Snow Light Snow
8:23 PM 30.0 °F 22.4 °F 28.9 °F 96% 29.66 in 1.2 mi NNE 8.1 mph - 0.00 in Snow Light Snow
8:47 PM 28.9 °F 21.1 °F 28.0 °F 96% 29.64 in 1.0 mi North 8.1 mph - 0.00 in Snow Light Snow
8:54 PM 28.9 °F 21.9 °F 28.0 °F 96% 29.64 in 1.0 mi North 6.9 mph - 0.00 in Snow Light Snow
9:10 PM 28.9 °F 19.2 °F 28.0 °F 96% 29.64 in 1.0 mi North 11.5 mph - 0.00 in Snow Light Snow
9:16 PM 28.0 °F 18.6 °F 27.0 °F 96% 29.63 in 0.8 mi North 10.4 mph - 0.00 in Snow Light Snow
9:37 PM 28.0 °F 18.6 °F 26.1 °F 92% 29.63 in 0.8 mi North 10.4 mph - 0.00 in Snow Light Snow
9:54 PM 27.0 °F 18.0 °F 26.1 °F 96% 29.62 in 0.8 mi North 9.2 mph - 0.00 in Snow Light Snow
10:43 PM 26.1 °F 16.8 °F 25.0 °F 96% 29.61 in 1.0 mi North 9.2 mph - 0.00 in Snow Light Snow
10:51 PM 26.6 °F 16.8 °F 24.8 °F 93% 29.61 in 0.8 mi North 10.4 mph - 0.00 in Snow Light Snow
10:54 PM 26.1 °F 16.8 °F 25.0 °F 96% 29.61 in 0.8 mi North 9.2 mph - 0.00 in Snow Light Snow
11:01 PM 26.1 °F 15.6 °F 25.0 °F 96% 29.62 in 1.0 mi North 11.5 mph - 0.00 in Snow Light Snow
11:13 PM 26.1 °F 15.0 °F 24.1 °F 92% 29.59 in 0.8 mi North 12.7 mph - 0.00 in Snow Light Snow
11:54 PM 25.0 °F 13.1 °F 23.0 °F 92% 29.58 in 0.8 mi North 13.8 mph - 0.00 in Snow Light Snow